Location: Newark
(53.5628°N, 20.9853°E)
Time: 02:42:57
(UTC+00:00)

X-37B - Visible Passes

Search period start: 01 October 2020 00:00
Search period end: 11 October 2020 00:00
Orbit: 386 x 387 km, 45.0° (Epoch: 18 September)

Date Brightness Start Highest point End Pass type
(mag) Time Alt. Az. Time Alt. Az. Time Alt. Az.
05 Oct 3.0 17:54:51 10° SSW 17:55:54 14° S 17:55:54 14° S visible
06 Oct 3.0 16:57:10 10° S 16:58:26 12° SSE 16:59:42 10° SE visible
06 Oct 3.5 18:32:02 10° SW 18:32:15 11° SW 18:32:15 11° SW visible
07 Oct 2.6 17:33:47 10° SW 17:35:56 17° S 17:36:16 17° SSE visible
08 Oct 2.9 16:35:44 10° SSW 16:37:36 15° SSE 16:39:28 10° SE visible
08 Oct 3.0 18:11:18 10° SW 18:12:31 15° SSW 18:12:31 15° SSW visible
09 Oct 2.6 17:12:54 10° SW 17:15:09 18° S 17:16:30 14° SSE visible
10 Oct 2.8 17:50:42 10° SW 17:52:43 16° S 17:52:44 16° S visible
